Regional Weather Roundup
Issued by NWS

Home | Current Version | Previous Version | Text Only | Print | Product List | Glossary On
Versions: 1 2 3 4 5 6 7 8 9 10 11 12 13 14 15 16 17 18 19 20 21 22 23 24 25 26 27 28 29 30 31 32 33 34 35 36 37 38 39 40 41 42 43 44 45 46 47 48 49 50
000
ASUS43 KMKX 250921
RWRWI

WISCONSIN REGIONAL WEATHER ROUNDUP
NATIONAL WEATHER SERVICE MILWAUKEE/SULLIVAN WI
400 AM CDT SAT MAR 25 2017

NOTE: "FAIR" INDICATES FEW OR NO CLOUDS BELOW 12,000 FEET WITH NO
SIGNIFICANT WEATHER AND/OR OBSTRUCTIONS TO VISIBILITY.

WIZ001-002-006>008-014>016-023>028-251000-
NORTHWEST WISCONSIN

CITY           SKY/WX    TMP DP  RH WIND       PRES   REMARKS
SUPERIOR ARPT  CLOUDY    34  32  93 NE7       30.26F WCI  28
ASHLAND        CLOUDY    33  30  88 E8        30.26F WCI  26
HAYWARD        CLOUDY    35  29  78 NE8       30.22R WCI  29
SIREN          CLOUDY    35  29  81 E3        30.21F
CUMBERLAND     CLOUDY    34  30  86 NE9       30.18F WCI  26
RICE LAKE      CLOUDY    35  31  87 CALM      30.20F
CHETEK         CLOUDY    35  31  87 NE6       30.17F WCI  30
LADYSMITH      CLOUDY    36  31  85 NE8       30.20F WCI  29
EAU CLAIRE     CLOUDY    37  32  82 E10       30.15F WCI  30
MENOMONIE      CLOUDY    37  32  82 NE8       30.15F WCI  31
NEW RICHMOND   CLOUDY    35  31  85 NE8       30.17F WCI  28
OSCEOLA        CLOUDY    36  31  83 NE7       30.20F WCI  30
$$

WIZ003>005-009-010-017-018-251000-
NORTH CENTRAL WISCONSIN

CITY           SKY/WX    TMP DP  RH WIND       PRES   REMARKS
MANITOWISH WTR CLOUDY    31  31 100 NE5       30.20S WCI  26
ARBOR VITAE    CLOUDY    34  32  92 NE5       30.20R WCI  30
WOODRUFF       CLOUDY    34  32  92 NE5       30.20R WCI  30
RHINELANDER    CLOUDY    34  31  88 NE9       30.19S WCI  27
EAGLE RIVER    CLOUDY    32  32  99 NE7       30.20S WCI  26
LAND O LAKES   LGT SNOW  32  32 100 NE5       30.22S WCI  27
PHILLIPS       CLOUDY    32  30  92 NE6       30.20R WCI  27
TOMAHAWK       CLOUDY    32  30  90 E7        30.19F WCI  26
MEDFORD        CLOUDY    32  30  92 E12       30.16F WCI  23
MERRILL        CLOUDY    33  31  93 E6        30.19S WCI  28
$$

WIZ029-030-035-036-043>047-251000-
CENTRAL WISCONSIN

CITY           SKY/WX    TMP DP  RH WIND       PRES   REMARKS
WAUSAU         CLOUDY    33  30  88 E8        30.18R WCI  26
MOSINEE        CLOUDY    32  32 100 NE10      30.18S WCI  24
MARSHFIELD     CLOUDY    34  31  88 E13       30.15S WCI  25
STEVENS POINT  CLOUDY    32  31  98 NE15      30.17F WCI  22
WAUPACA        CLOUDY    36  33  89 NE7       30.17S WCI  30
WAUTOMA        CLOUDY    35  33  92 NE9       30.16S WCI  28
WISC RAPIDS    CLOUDY    34  33  96 NE9       30.17S WCI  27
CAMP DOUGLAS   CLOUDY    36  32  87 NE9       30.12F WCI  29
$$

WIZ011>013-019>022-031-037>040-048>050-251000-
NORTHEAST WISCONSIN

CITY           SKY/WX    TMP DP  RH WIND       PRES   REMARKS
ANTIGO         CLOUDY    32  30  94 E17       30.19R WCI  20
SHAWANO        CLOUDY    36  32  86 NE10      30.19F WCI  29
OCONTO         CLOUDY    35  32  90 NE7       30.19F WCI  29
STURGEON BAY   CLOUDY    35  33  92 NE12G17   30.19F WCI  27
GREEN BAY      LGT RAIN  35  34  96 NE16      30.17F WCI  25
MANITOWOC      LGT RAIN  36  34  92 NE13G18   30.15S WCI  27
APPLETON       CLOUDY    34  34 100 NE13G18   30.12F WCI  25
CLINTONVILLE   CLOUDY    34  32  93 NE10      30.18S WCI  26
OSHKOSH        CLOUDY    35  32  88 NE15G22   30.12F WCI  25
$$

WIZ032>034-041-042-053>061-251000-
SOUTHWEST WISCONSIN

CITY           SKY/WX    TMP DP  RH WIND       PRES   REMARKS
LA CROSSE      CLOUDY    40  35  83 E10       30.12S WCI  33
SPARTA         CLOUDY    36  34  94 E10G18    30.13S WCI  28
VIROQUA        CLOUDY    35  35  99 E20G25    30.07S WCI  24
BOSCOBEL       LGT RAIN  38  36  92 NE10      30.07F WCI  31
PRAIRIE DU CHI DRIZZLE   37  36  96 NE12G17   30.04F WCI  29
PLATTEVILLE    CLOUDY    37  37 100 NE15G21   30.03F WCI  28
$$

WIZ056-057-062-063-064-067-068-251000-
SOUTH CENTRAL WISCONSIN

CITY           SKY/WX    TMP DP  RH WIND       PRES   REMARKS
REEDSBURG      CLOUDY    35  35 100 NE9       30.11S WCI  27
BARABOO/DELLS  CLOUDY    34  33  96 NE13G18   30.10F FOG     WCI  25
LONE ROCK      CLOUDY    37  34  89 NE15G21   30.08F WCI  28
MINERAL POINT  LGT RAIN  36  36 100 NE14G22   30.03F WCI  27
MADISON        LGT RAIN  36  34  92 NE9       30.08F WCI  29
MIDDLETON      CLOUDY    37  36  93 NE7       30.09F WCI  32
WATERTOWN      CLOUDY    36  36 100 N9        30.08F FOG     WCI  29
MONROE         CLOUDY    36  36 100 NE16      30.04S WCI  26
JANESVILLE     LGT RAIN  37  37 100 NE8       30.06S WCI  31
$$

WIZ051-052-058>065-066-070>072-251000-
SOUTHEAST WISCONSIN

CITY           SKY/WX    TMP DP  RH WIND       PRES   REMARKS
MILWAUKEE      LGT RAIN  37  35  92 NE15      30.07F WCI  28
WAUKESHA       CLOUDY    34  32  93 NE12G18   30.08S WCI  25
MILWAUKEE/TIMM CLOUDY    36  32  87 NE10G18   30.09F WCI  28
RACINE         CLOUDY    37  35  92 N14G21    30.08F WCI  28
KENOSHA        CLOUDY    38  36  92 NE10      30.07S WCI  31
FOND DU LAC    CLOUDY    36  32  85 NE10      30.13R WCI  28
SHEBOYGAN      CLOUDY    36  33  89 NE20      30.11F WCI  25
WEST BEND      DRIZZLE   36  36 100 NE12G17   30.09F WCI  27
JUNEAU         DRIZZLE   35  33  95 N9        30.11S WCI  27
$$

LSZ147-162-251000-
LAKE SUPERIOR

STATION/POSITION TIME  TEMP    WIND        PRES    WAVE
                       AIR SEA DIR/SP/G            HT/PER
                 (UTC) (F)     (DEG/KT/KT) (MB)    (FT/S)
DEVILS ISLAND    0900   34      70/ 16/ 17 1026.6S
PORT WING        0840   35      70/  6/ 10 1025.1F
SAXON HARBOR     0900   33      70/  6/ 15 1024.4
$$

LMZ867-665-643>646-251000-
LAKE MICHIGAN

STATION/POSITION TIME  TEMP    WIND        PRES    WAVE
                       AIR SEA DIR/SP/G            HT/PER
                 (UTC) (F)     (DEG/KT/KT) (MB)    (FT/S)
CHAMBERS ISLAND  0840   33      20/ 11/ 15 1022.7S
NORTHPORT PIER   0840   35      40/ 10/ 14 1023.0F
SISTER BAY       0705   34      10/  6/  6   N/A
KEWAUNEE LAKESHO 0854   36      40/ 15/ 19 1021.0F
SHEBOYGAN LAKESH 0900   36      30/ 19/ 22 1020.2F
PORT WASHINGTON  0840   37      30/ 14/ 20 1020.3S
MILWAUKEE LAKESH 0900   37      20/ 16/ 19   N/A
KENOSHA   LAKESH 0900   37      20/ 14/ 17 1018.3
$$

TC  - TEMPERATURE IN CELSIUS
VSB - VISIBILITY IN STATUTE MILES
WCI - WIND CHILL INDEX
HX  - HEAT INDEX





USA.gov is the U.S. government's official web portal to all federal, state and local government web resources and services.